Wind_Speed
13 13 12 12 14 16 17 19 20 21 21 21 21 20 20 19 18 17 17 17 17 16 15 15 15 15 15 16 16 15 15 15 16 16 16 17 17 17 18 19 20 20 19
14 14 14 14 15 17 18 20 21 22 21 21 21 20 20 20 19 18 18 18 18 17 16 16 17 17 18 18 18 18 18 18 18 18 18 19 19 19 20 21 22 23 22
13 13 13 14 15 16 18 19 20 20 19 19 19 19 19 19 19 18 18 18 18 18 18 18 18 19 19 20 21 21 20 20 19 19 20 20 20 20 21 22 23 23 23
9 10 11 12 13 14 16 17 19 18 17 17 17 17 17 17 18 17 18 18 18 19 20 20 20 21 22 22 23 23 22 21 20 21 22 22 21 21 21 22 22 22 23
6 6 7 9 11 12 14 16 18 17 16 16 16 15 15 15 16 16 17 19 20 21 22 22 22 23 23 24 25 25 24 23 22 22 23 23 23 23 22 22 23 23 24
7 6 6 7 8 10 13 15 17 17 17 16 15 15 14 14 14 15 17 19 20 21 21 21 21 21 21 22 23 24 23 22 21 21 23 24 24 25 25 24 24 24 25
8 8 8 7 7 8 9 11 13 13 13 13 12 13 13 13 14 15 17 18 19 18 18 18 18 18 19 20 21 23 22 21 20 21 23 24 25 25 25 24 24 24 24
9 9 9 9 8 8 8 9 10 10 10 10 10 12 13 14 15 16 17 18 18 18 18 19 19 20 21 22 23 24 24 23 21 21 23 24 25 25 24 24 24 24 24
10 10 10 8 8 7 7 7 8 9 10 10 12 13 14 15 16 17 18 18 19 20 20 21 22 23 24 24 25 27 28 26 24 23 24 25 26 26 25 24 25 24 25
10 10 10 8 7 7 7 7 7 8 9 10 11 13 14 15 16 16 18 19 21 21 22 23 23 24 24 25 26 28 29 28 26 25 25 26 27 27 26 26 26 26 26
11 10 9 8 7 7 8 7 7 8 8 9 10 12 13 15 16 17 19 20 20 20 20 21 22 22 23 24 25 26 27 27 26 25 25 25 26 27 28 28 28 28 28
12 11 9 9 8 8 8 8 8 9 9 9 9 10 12 14 15 16 17 17 18 18 18 19 20 21 22 23 24 25 26 26 25 25 25 25 26 26 27 29 30 30 30
12 12 11 11 10 8 8 9 9 10 10 10 10 10 11 12 13 13 13 14 15 15 15 16 17 18 20 21 21 22 24 25 25 25 25 25 26 27 28 30 30 31 31
13 14 14 14 12 11 9 10 10 11 12 12 11 11 11 11 11 11 11 11 12 13 13 13 14 15 17 19 20 21 23 25 26 27 27 27 27 28 29 30 31 32 33
14 15 16 16 15 13 12 11 11 13 14 14 13 12 12 13 13 13 13 13 14 14 15 15 15 16 17 18 20 22 24 26 27 28 29 30 30 31 32 33 33 34 35
19 18 17 16 14 13 11 11 12 13 15 15 16 15 15 15 16 17 17 17 17 18 18 19 20 21 22 22 24 25 27 29 31 33 35 36 37 37 38 38 39 40 41
23 23 21 19 17 15 12 11 11 13 15 17 18 19 19 19 20 21 22 22 22 23 24 25 26 27 28 29 29 31 32 34 37 39 42 43 44 45 46 47 47 48 49
28 27 26 24 23 21 18 15 14 15 17 19 21 23 24 25 26 27 29 29 30 30 31 32 33 34 35 35 36 37 38 40 42 44 46 47 49 50 52 53 54 54 56
31 30 29 28 27 27 25 22 20 20 21 23 25 27 28 30 31 33 34 35 36 37 38 38 39 40 41 41 42 43 44 45 46 47 48 50 51 52 54 55 56 58 60
33 33 34 32 31 32 32 30 26 25 26 27 29 30 32 33 35 37 38 40 41 42 43 43 44 45 45 46 46 47 47 48 49 49 50 51 52 53 55 56 58 59 61
37 36 35 34 34 34 33 33 31 30 31 32 33 34 34 36 38 40 42 44 45 46 47 47 48 49 49 49 49 49 50 50 50 50 51 52 53 54 56 58 59 61 62
39 38 38 37 36 36 35 35 34 34 34 36 37 38 38 39 41 44 46 47 48 49 49 49 50 50 51 51 51 51 50 50 50 51 51 53 55 57 59 61 63 64 65
39 39 39 39 40 40 39 37 36 35 36 38 39 40 41 42 44 46 47 48 48 48 48 49 49 50 51 52 53 52 51 50 51 53 55 57 59 61 62 64 65 66 66
38 39 40 41 42 42 41 37 36 36 38 39 39 40 42 44 45 45 47 47 48 48 48 47 47 48 49 51 52 53 53 54 55 56 60 62 64 64 65 66 66 65 64
37 40 41 42 42 42 39 37 36 37 38 39 40 41 42 42 44 46 47 48 48 48 48 47 47 48 49 51 54 56 58 59 61 60 60 62 63 64 64 63 62 63 64
39 41 42 43 43 41 40 37 36 36 37 39 40 40 42 43 44 46 47 47 47 48 48 48 49 50 53 56 58 60 62 63 63 61 59 59 59 59 61 62 63 65 67
Wind_Direction
293 290 284 275 269 268 269 269 270 271 271 270 271 270 269 269 268 271 272 270 268 268 268 268 267 265 264 264 264 263 262 261 262 263 263 261 261 262 264 264 268 271 274
287 283 276 271 269 269 269 268 267 265 265 266 267 267 266 265 267 270 271 268 267 266 266 266 266 267 268 269 269 268 267 266 265 265 266 265 265 266 268 270 273 276 278
284 283 279 275 275 276 275 271 265 261 259 259 260 261 261 263 266 268 268 268 267 267 267 267 267 267 268 269 269 268 267 268 269 269 270 270 270 271 272 274 276 278 280
299 292 288 284 283 283 281 274 266 261 257 256 256 256 257 260 263 266 267 267 268 269 270 270 270 270 270 269 269 269 269 270 271 273 273 273 273 273 273 274 275 276 279
332 316 304 293 288 286 283 276 268 263 259 256 254 253 255 258 261 264 266 267 267 268 269 269 270 271 271 272 272 272 271 270 270 271 272 274 274 274 273 274 275 275 276
345 336 322 306 295 287 283 277 271 267 264 259 255 254 255 258 262 265 267 268 268 268 269 270 271 272 273 273 274 273 271 269 267 267 269 271 273 274 271 273 275 277 275
349 347 338 327 316 306 298 291 284 277 273 266 263 262 262 263 268 270 271 272 270 269 269 269 271 272 274 274 274 273 271 268 266 266 268 270 271 273 272 273 274 274 274
343 344 343 337 332 327 317 306 299 292 287 281 278 274 271 273 275 273 273 272 268 265 265 267 271 274 275 276 275 274 273 270 267 267 269 271 273 274 275 274 273 273 272
341 336 336 336 340 343 338 325 312 301 293 286 284 282 279 278 276 274 273 272 269 268 269 272 275 278 278 278 276 276 276 275 274 273 272 273 274 275 275 275 274 272 270
347 336 328 327 339 347 348 343 331 312 298 292 289 286 284 282 280 279 278 277 276 276 276 277 279 279 278 276 275 275 277 279 279 277 276 274 274 274 273 273 272 271 271
356 345 331 323 329 336 338 343 341 331 316 305 298 293 289 287 286 286 286 285 285 283 282 282 281 280 277 276 277 280 282 282 282 281 279 277 275 275 276 276 275 274 273
0 356 350 342 334 331 335 342 342 338 332 323 311 304 298 296 295 294 294 294 291 289 287 286 285 283 281 281 282 283 283 283 283 281 279 278 277 277 277 277 277 276 275
356 355 355 354 353 345 339 344 343 341 337 331 323 316 309 305 304 303 302 301 298 295 294 291 288 286 285 285 284 282 281 282 282 282 280 278 275 275 274 275 274 273 273
350 349 350 351 351 351 345 344 344 339 334 332 330 323 312 308 308 307 307 307 305 304 300 294 289 286 285 285 284 282 281 281 282 283 282 281 278 276 276 275 274 274 273
335 338 341 342 343 348 350 347 342 337 332 330 326 319 312 308 307 306 305 304 303 302 299 296 290 287 285 283 281 279 278 278 279 281 282 282 282 281 280 279 278 277 276
322 325 325 327 328 331 337 339 339 337 332 325 321 320 316 313 311 309 309 308 304 299 294 290 286 283 280 278 279 279 280 281 281 280 281 281 280 280 280 279 278 277 277
316 319 316 315 315 315 317 320 323 324 323 321 318 318 317 315 313 311 310 309 305 301 297 293 291 288 286 285 285 285 285 285 285 284 284 284 283 282 281 280 279 277 277
311 314 313 312 309 309 308 308 308 310 310 311 313 313 313 312 311 310 310 310 310 308 305 302 298 295 292 290 289 287 286 286 285 284 284 285 284 283 282 282 281 280 280
306 309 312 310 306 306 305 303 301 301 303 305 306 306 305 305 305 305 306 306 307 306 305 302 299 296 293 292 290 289 289 289 288 288 288 287 286 285 285 284 284 283 282
304 308 310 307 304 301 301 300 297 295 296 298 298 297 298 298 298 299 300 301 301 301 300 298 296 294 292 292 291 292 292 291 291 291 290 290 289 288 287 287 286 285 284
303 306 308 304 300 297 295 294 290 289 289 290 291 291 292 292 292 293 295 296 297 297 297 295 293 291 290 290 291 292 292 292 290 290 290 289 289 288 288 287 287 286 286
302 304 303 300 296 291 288 286 283 280 282 283 284 285 286 288 289 290 291 293 295 297 296 294 292 289 288 288 290 291 292 292 291 291 290 289 289 288 287 287 287 287 286
298 299 299 297 293 290 287 284 280 277 277 279 280 282 283 285 285 286 289 293 295 297 297 295 292 289 288 289 290 291 291 291 291 291 290 289 287 286 285 285 286 287 287
293 293 295 293 290 288 286 284 279 278 279 280 280 281 283 284 287 290 293 296 297 297 296 295 292 291 291 292 292 292 291 290 290 288 288 288 287 287 287 287 288 287 286
287 288 291 292 290 289 288 286 282 279 281 283 283 284 288 292 294 295 296 296 296 295 295 293 293 294 293 293 292 292 291 291 290 289 288 289 290 290 289 288 287 286 285
280 282 286 288 289 289 289 287 283 281 282 284 285 288 291 294 295 295 295 296 295 295 294 294 294 295 294 293 292 291 291 291 292 292 292 292 291 290 289 288 287 286 286
Height
5902 5902 5902 5902 5901 5901 5901 5901 5901 5900 5900 5900 5900 5901 5901 5901 5902 5902 5902 5902 5901 5901 5900 5900 5900 5900 5900 5900 5900 5900 5900 5901 5901 5900 5900 5900 5899 5899 5899 5899 5899 5899 5899
5899 5899 5899 5899 5899 5899 5899 5899 5898 5898 5897 5897 5897 5897 5898 5898 5898 5899 5899 5899 5899 5899 5898 5898 5898 5898 5898 5897 5898 5898 5898 5898 5898 5898 5897 5897 5897 5897 5897 5896 5896 5896 5896
5897 5896 5896 5897 5897 5897 5897 5897 5896 5896 5895 5895 5895 5895 5895 5896 5896 5896 5897 5897 5897 5897 5896 5896 5896 5895 5895 5895 5895 5895 5896 5896 5896 5895 5894 5894 5894 5894 5894 5893 5893 5893 5893
5895 5894 5894 5894 5895 5895 5896 5896 5895 5895 5894 5894 5894 5894 5894 5894 5894 5895 5895 5895 5895 5895 5894 5893 5893 5892 5892 5892 5892 5892 5892 5893 5893 5892 5891 5891 5891 5891 5890 5890 5890 5889 5889
5895 5894 5893 5893 5893 5893 5893 5894 5894 5893 5893 5893 5893 5893 5893 5893 5893 5893 5893 5893 5893 5892 5891 5891 5890 5889 5888 5888 5888 5888 5888 5889 5889 5888 5887 5887 5887 5887 5887 5886 5886 5886 5885
5894 5893 5893 5892 5891 5891 5891 5891 5892 5892 5892 5892 5891 5891 5891 5891 5891 5891 5891 5890 5890 5889 5889 5888 5887 5886 5885 5885 5884 5883 5884 5885 5886 5885 5884 5883 5883 5883 5883 5883 5882 5882 5881
5894 5893 5892 5891 5890 5890 5890 5890 5890 5890 5890 5889 5889 5889 5889 5889 5889 5889 5888 5888 5887 5887 5886 5885 5884 5883 5882 5881 5880 5879 5880 5881 5882 5882 5880 5879 5879 5879 5879 5879 5879 5878 5877
5893 5892 5891 5890 5889 5889 5888 5888 5888 5887 5887 5887 5887 5887 5887 5887 5887 5887 5886 5886 5885 5884 5883 5883 5882 5881 5880 5878 5877 5876 5875 5877 5879 5878 5877 5876 5875 5874 5874 5875 5874 5873 5873
5893 5892 5891 5890 5889 5888 5887 5886 5886 5885 5885 5885 5885 5885 5885 5884 5884 5884 5884 5883 5883 5882 5881 5880 5879 5878 5877 5875 5874 5872 5871 5872 5874 5874 5873 5872 5871 5870 5870 5869 5869 5868 5868
5892 5892 5891 5890 5888 5887 5886 5885 5885 5884 5884 5883 5883 5882 5882 5882 5882 5882 5881 5880 5879 5879 5878 5877 5876 5874 5873 5871 5870 5868 5867 5868 5869 5869 5868 5867 5866 5865 5864 5864 5863 5863 5862
5892 5891 5890 5889 5888 5887 5885 5884 5883 5883 5882 5881 5881 5880 5880 5880 5879 5879 5878 5877 5876 5874 5873 5872 5871 5870 5868 5867 5866 5864 5863 5864 5864 5864 5863 5863 5862 5860 5859 5858 5857 5857 5856
5892 5891 5889 5888 5887 5885 5884 5883 5882 5881 5881 5880 5879 5878 5878 5877 5876 5875 5874 5873 5872 5871 5870 5869 5867 5866 5864 5863 5862 5861 5859 5859 5859 5859 5859 5858 5857 5856 5854 5853 5852 5851 5850
5892 5890 5889 5887 5886 5884 5883 5882 5881 5880 5879 5878 5877 5876 5876 5875 5874 5873 5872 5870 5869 5868 5867 5865 5864 5862 5861 5859 5859 5858 5856 5854 5854 5854 5853 5853 5852 5850 5849 5848 5846 5845 5844
5892 5890 5887 5885 5884 5883 5882 5880 5879 5879 5878 5877 5876 5875 5874 5872 5871 5871 5869 5868 5867 5865 5864 5862 5861 5859 5857 5856 5854 5853 5852 5851 5850 5848 5848 5847 5846 5845 5843 5842 5840 5839 5838
5892 5890 5887 5885 5883 5882 5881 5879 5878 5877 5876 5875 5874 5873 5872 5871 5869 5868 5867 5866 5864 5862 5861 5859 5857 5856 5854 5853 5851 5849 5847 5845 5844 5842 5841 5840 5838 5837 5836 5835 5833 5832 5831
5889 5888 5886 5884 5883 5882 5880 5879 5877 5876 5875 5874 5873 5872 5870 5869 5866 5864 5863 5862 5860 5859 5857 5856 5854 5852 5850 5848 5846 5844 5841 5839 5836 5834 5833 5831 5830 5829 5828 5826 5825 5824 5822
5885 5883 5882 5881 5880 5879 5879 5877 5876 5875 5873 5872 5870 5868 5867 5866 5864 5861 5859 5858 5856 5854 5852 5850 5847 5845 5843 5841 5839 5837 5834 5832 5829 5826 5824 5822 5821 5819 5818 5816 5815 5813 5812
5879 5878 5877 5876 5874 5873 5873 5873 5873 5871 5870 5867 5865 5863 5862 5860 5858 5856 5853 5851 5849 5847 5845 5842 5840 5837 5835 5833 5831 5829 5827 5825 5822 5819 5816 5814 5811 5809 5807 5805 5803 5801 5799
5874 5872 5871 5870 5867 5865 5865 5866 5866 5865 5864 5862 5860 5858 5856 5854 5851 5849 5846 5844 5842 5840 5838 5836 5833 5830 5827 5825 5823 5821 5818 5815 5812 5809 5807 5803 5800 5797 5794 5792 5790 5787 5784
5868 5867 5865 5864 5862 5859 5857 5857 5858 5857 5856 5855 5853 5852 5850 5848 5845 5842 5840 5838 5836 5834 5831 5829 5826 5822 5819 5817 5814 5812 5808 5805 5801 5798 5795 5792 5788 5784 5781 5778 5776 5773 5770
5862 5861 5859 5858 5856 5854 5852 5851 5851 5850 5849 5848 5846 5844 5842 5840 5838 5835 5833 5831 5828 5826 5823 5820 5817 5813 5810 5808 5805 5803 5799 5794 5791 5787 5783 5780 5776 5772 5768 5764 5761 5758 5754
5855 5854 5853 5852 5850 5847 5846 5846 5845 5843 5842 5840 5838 5836 5834 5832 5829 5826 5824 5821 5819 5816 5813 5810 5806 5803 5800 5797 5795 5792 5789 5785 5779 5775 5771 5767 5763 5759 5754 5750 5746 5742 5738
5849 5848 5846 5844 5843 5841 5839 5839 5837 5836 5834 5832 5830 5828 5825 5823 5820 5817 5814 5812 5809 5806 5802 5799 5795 5792 5788 5785 5782 5779 5776 5773 5768 5764 5758 5753 5749 5744 5739 5734 5730 5725 5721
5844 5841 5840 5838 5836 5834 5832 5830 5828 5827 5825 5823 5821 5819 5816 5813 5810 5808 5805 5802 5799 5795 5792 5788 5784 5781 5777 5773 5769 5766 5763 5759 5755 5752 5745 5738 5733 5728 5723 5719 5713 5708 5704
5838 5836 5834 5831 5828 5826 5823 5823 5821 5819 5817 5815 5813 5810 5807 5805 5802 5799 5795 5792 5788 5785 5781 5778 5774 5770 5766 5762 5757 5752 5748 5743 5739 5736 5732 5726 5718 5712 5707 5702 5697 5691 5686
5832 5830 5828 5824 5822 5819 5817 5815 5814 5812 5811 5808 5805 5802 5800 5797 5794 5790 5786 5782 5778 5775 5771 5767 5762 5759 5754 5749 5744 5738 5733 5728 5723 5718 5715 5711 5705 5698 5691 5685 5679 5673 5668